This is the latest recevied weather packets stored in our database for station/object WX6HNX-12. If no packets are shown the sender has not sent any weather packets the latest 10 day(s).
| Time | Temp. | Humidity | Pressure | Rain* | Wind** | Luminosity | Snow |
|---|---|---|---|---|---|---|---|
| 1778034734 | 17.78° C | 56% | 1014.6 hPa | 0 mm | - | - | - |
| 1778034435 | 17.78° C | 54% | 1014.6 hPa | 0 mm | - | - | - |
| 1778034134 | 17.78° C | 53% | 1014.5 hPa | 0 mm | - | - | - |
| 1778033835 | 17.78° C | 53% | 1014.5 hPa | 0 mm | - | - | - |
| 1778033534 | 17.78° C | 54% | 1014.5 hPa | 0 mm | - | - | - |
| 1778033236 | 17.78° C | 54% | 1014.5 hPa | 0 mm | - | - | - |
| 1778032937 | 17.78° C | 53% | 1014.3 hPa | 0 mm | - | - | - |
| 1778032334 | 17.78° C | 53% | 1014.3 hPa | 0 mm | - | - | - |
| 1778032035 | 17.78° C | 56% | 1014.4 hPa | 0 mm | - | - | - |
| 1778031735 | 17.78° C | 57% | 1014.3 hPa | 0 mm | - | - | - |
| 1778031434 | 17.78° C | 56% | 1014.3 hPa | 0 mm | - | - | - |
| 1778031135 | 17.78° C | 56% | 1014.3 hPa | 0 mm | - | - | - |
| 1778030834 | 18.33° C | 56% | 1014.2 hPa | 0 mm | - | - | - |
| 1778030534 | 18.33° C | 55% | 1014.2 hPa | 0 mm | - | - | - |
| 1778030234 | 18.89° C | 54% | 1014.3 hPa | 0 mm | - | - | - |
| 1778029936 | 18.89° C | 54% | 1014.2 hPa | 0 mm | - | - | - |
| 1778029634 | 18.89° C | 54% | 1014.2 hPa | 0 mm | - | - | - |
| 1778029335 | 18.89° C | 55% | 1014.1 hPa | 0 mm | - | - | - |
| 1778029038 | 18.89° C | 56% | 1014.1 hPa | 0 mm | - | - | - |
| 1778028734 | 18.33° C | 56% | 1014.1 hPa | 0 mm | - | - | - |
| 1778028434 | 18.33° C | 58% | 1014.1 hPa | 0 mm | - | - | - |
| 1778028134 | 17.78° C | 58% | 1014.1 hPa | 0 mm | - | - | - |
| 1778027834 | 17.78° C | 59% | 1014.2 hPa | 0 mm | - | - | - |
| 1778027534 | 17.78° C | 59% | 1014.2 hPa | 0 mm | - | - | - |
| 1778027234 | 17.78° C | 60% | 1014.2 hPa | 0 mm | - | - | - |
* Rain latest hour (hover to see other rain measurements)
** Current wind speed in m/s (hover to see current wind gust speed)